Weather Roundup
Issued by NWS Chicago, IL

Home | Current Version | Previous Version | Graphics & Text | Print | Product List | Glossary On
Versions: 1 2 3 4 5 6 7 8 9 10 11 12 13 14 15 16 17 18 19 20 21 22 23 24 25 26 27 28 29 30 31 32 33 34 35 36 37 38 39 40 41 42 43 44 45 46 47 48 49 50
000
NZUS59 KLOT 221709
HRRLOT

CHICAGO AREA WEATHER ROUNDUP
NATIONAL WEATHER SERVICE CHICAGO/ROMEOVILLE IL
1200 PM CDT THU JUN 22 2017

NOTE: "FAIR" INDICATES FEW OR NO CLOUDS BELOW 12,000 FEET WITH NO
SIGNIFICANT WEATHER AND/OR OBSTRUCTIONS TO VISIBILITY.

* THESE STATIONS ARE NOT UNDER NWS QUALITY CONTROL. THEY ALSO MAY NOT
  REPORT WEATHER SUCH AS PRECIPITATION OR FOG.

ILZ005-006-012>014-019>023-221800-
NORTHEAST ILLINOIS

CITY           SKY/WX    TMP DP  RH WIND       PRES   REMARKS
OHARE          PTSUNNY   86  68  54 SW17G24   29.82S HX  89
MIDWAY         CLOUDY    86  68  54 S14       29.82F HX  89
AURORA         CLOUDY    84  70  62 S14       29.85R HX  88
LANSING*       CLOUDY    83  67  59 S18       29.85F HX  85
JOLIET*        CLOUDY    83  72  67 S12G21    29.85S HX  89
WAUKEGAN       CLOUDY    82  69  64 SW16G23   29.80S HX  85
DUPAGE AIRPORT MOSUNNY   84  71  65 SW14      29.82S HX  89
WHEELING       PTSUNNY   84  69  60 SW13G21   29.82S HX  88
MORRIS*        CLOUDY    82  69  64 S15       29.83S HX  86
LEWIS AIRPORT* CLOUDY    83  67  58 S16G23    29.84S HX  86
NORTHERLY ISL    N/A     84  63  49 SW9         N/A  HX  85
$$

WIZ051-052-058>065-066-070>072-221800-
SOUTHEAST WISCONSIN

CITY           SKY/WX    TMP DP  RH WIND       PRES   REMARKS
MILWAUKEE      CLOUDY    81  67  62 SW13      29.77F HX  83
KENOSHA*       PTSUNNY   81  67  62 SW16G25   29.80S HX  83
RACINE*          N/A     82  66  58 SW16G24   29.80  HX  84
WAUKESHA       MOSUNNY   75  64  69 SW6       29.80S
WEST BEND      CLOUDY    73  66  78 SW10      29.77F
$$

INZ001>003-010>013-019-020-221800-
NORTHWEST INDIANA

CITY           SKY/WX    TMP DP  RH WIND       PRES   REMARKS
GARY*          PTSUNNY   84  66  54 S9        29.85F HX  86
MICHIGAN CITY* NOT AVBL
RENSSELAER*    NOT AVBL
VALPARAISO     MOSUNNY   84  71  65 CALM      29.88F HX  89
$$

LMZ740>746-221800-
SOUTHERN LAKE MICHIGAN

STATION/POSITION TIME  SKY/WX   TEMP WIND        PRES    VSBY
                                AIR  DIR/SP/G
                 (UTC)          (F)  (DEG/KT/KT) (MB)    (MI)
HARRISON CRIB    1640            81  200/ 17/ 18   N/A
BURNHAM HARBOR   1700            84                N/A
CALUMET HARBOR   1648            81  200/ 13/ 18 1009.8F
BURNS HARBOR     1640            80  200/ 16/ 21 1011.2F
MICHIGAN CITY    1640            80  190/ 16/ 19   N/A
$$

ABBREVIATIONS USED IN REMARKS
   TC - TEMPERATURE IN CELSIUS
  WCI - WIND CHILL INDEX
   HX - HEAT INDEX
  VSB - VISIBILITY
$$




USA.gov is the U.S. government's official web portal to all federal, state and local government web resources and services.